Location: Peterborough
(44.3091°N, 78.3197°W)
Time: 03:37:52
(UTC-04:00)

S-56A Canister/Altair - Pass Details

Date: 25 March 2023
Orbit: 639 x 2492 km, 38.9° (Epoch: 08 June)

Event Time Altitude Azimuth Distance (km) Brightness Sun altitude
Rises 00:31:10 0° 277° (W) 5,869 12.3 -42.7°
Reaches altitude 10° 00:34:52 10° 274° (W) 4,995 11.8 -42.9°
Enters shadow 00:44:47 47° 249° (WSW) 3,066 10.3 -43.3°
Maximum altitude 00:49:18 60° 201° (SSW) 2,735 - -43.5°
Drops below altitude 10° 01:02:48 10° 126° (SE) 4,694 - -43.8°
Sets 01:06:10 0° 123° (ESE) 5,508 - -43.9°
